Regional Weather Roundup
Issued by NWS Wakefield, VA

Home | Current Version | Previous Version | Text Only | Print | Product List | Glossary On
Versions: 1 2 3 4 5 6 7 8 9 10 11 12 13 14 15 16 17 18 19 20 21 22 23 24 25 26 27 28 29 30 31 32 33 34 35 36 37 38 39 40 41 42 43 44 45 46 47 48 49 50
000
ASUS41 KAKQ 221010
RWRAKQ

REGIONAL WEATHER ROUNDUP
NATIONAL WEATHER SERVICE WAKEFIELD VA
600 AM EDT MON SEP 22 2014

Note: "fair" indicates few or no clouds below 12,000 feet with no
significant weather and/or obstructions to visibility. * = Denotes
station may not report precipitation (e.g., rain,snow,etc.),
thunder or fog.

VAZ042-051-052>054-056-221100-
NORTHERN VIRGINIA

CITY           SKY/WX    TMP DP  RH WIND       PRES   REMARKS
WASH NATIONAL  PTCLDY    67  47  48 W6        29.89R
DULLES         PTCLDY    59  47  64 W6        29.91R
FORT BELVOIR   CLEAR     59  51  75 CALM      29.90R
QUANTICO       CLEAR     62  49  62 NW6       29.91R
FREDERICKSBRG* CLEAR     62  50  63 NW5       29.90R
STAFFORD*      CLEAR     60  49  66 NW10G16   29.94R
WARRENTON      CLEAR     59  53  79 W5        29.90R
CULPEPER*      CLEAR     59  48  67 CALM      29.92R
MANASSAS*      CLEAR     61  50  67 W8        29.90R
LEESBURG*      MOCLDY    63  52  67 W5        29.92R
WINCHESTER     CLOUDY    63  48  59 W12       29.93R
FRONT ROYAL*   CLOUDY    63  48  59 W6        29.92R
LURAY*         CLOUDY    64  48  55 SW7       29.93R
$$

VAZ048-049-060>072-079>083-221100-
CENTRAL AND SOUTH CENTRAL VIRGINIA...AND NORTH CENTRAL NORTH CAROLINA

CITY           SKY/WX    TMP DP  RH WIND       PRES   REMARKS
RICHMOND       PTCLDY    70  44  39 NW12G23   29.90R
CHESTERFIELD*  MOSUNNY  N/A N/A N/A NW10      29.92R
PETERSBURG*    MOCLDY    65  51  59 W6        29.92R
HANOVER        CLEAR     66  46  48 NW10      29.92R
TAPPAHANNOCK*  CLEAR     61  51  70 CALM      29.90R
CHARLOTTSVILLE CLEAR     61  46  57 CALM      29.94R
ORANGE*        CLEAR     63  45  51 W8        29.94R
LOUISA*        CLEAR     63  48  59 NW3       29.92R
FARMVILLE*     CLEAR     64  46  52 CALM      29.92R
CREWE*         SUNNY     64  47  53 CALM      29.93R
FORT PICKETT*  SUNNY     61  50  65 W6        29.92R
LUNENBURG*     SUNNY     62  54  74 CALM      29.94R
SOUTH HILL*    PTCLDY    66  55  68 W3        29.98R
LAWRENCEVILLE* MOSUNNY   62  59  90 CALM      29.92R
ROANOKE RAPIDS MOSUNNY   68  57  68 CALM      29.91R
RALEIGH        MOCLDY    67  57  70 CALM      29.95R
$$

VAZ088>098-221100-
SOUTHEAST VIRGINIA

CITY           SKY/WX    TMP DP  RH WIND       PRES   REMARKS
NORFOLK        CLEAR     73  63  70 N5        29.87R
VIRGINIA BEACH PTCLDY    70  63  78 NW5       29.87R
NORFOLK NAVAL  MOCLDY    72  63  73 N8        29.90R
WEST POINT*    PTCLDY    65  61  86 CALM      29.90R
NEWPORT NEWS   CLEAR     71  59  65 N3        29.88R
LANGLEY AFB    CLEAR     69  63  80 CALM      29.88R
FORT EUSTIS    PTCLDY    71  71  98 NW5       29.87R
WILLIAMSBURG*  CLOUDY    72  61  68 NW5       29.89R
HR EXEC AP*    MOSUNNY   64  61  88 W3        29.91R
FRANKLIN*      CLEAR     66  63  88 NW6       29.91R
WAKEFIELD      PTCLDY    68  58  70 CALM      29.91R
$$

VAZ020-022-025-037-045-221100-
WEST CENTRAL AND SOUTHWEST VIRGINIA

CITY           SKY/WX    TMP DP  RH WIND       PRES   REMARKS
STAUNTON*      CLOUDY    58  47  65 CALM      29.97R
HOT SPRINGS VA CLOUDY    47  33  59 W14G21    30.03R
LYNCHBURG      CLEAR     58  48  69 VRB5      29.98R
DANVILLE       CLEAR     58  52  80 W5        29.97R
SOUTH BOSTON*  NOT AVBL
MARTINSVILLE   CLEAR     53  53 100 CALM      30.01R
ROANOKE        MOCLDY    58  47  66 N6        30.03R
BLACKSBURG     CLEAR     55  50  82 NW5       30.05R
DUBLIN*        MOCLDY    56  49  78 NW7       30.06R
MARION*        CLOUDY    56  46  70 W3        30.09R
HILLSVILLE*    CLEAR     52  47  83 NW6       30.05R
RICHLANDS*     CLOUDY    54  51  89 NW5       30.08R
WISE*          CLOUDY    52  48  87 NW7       30.11R
ABINGDON*      CLEAR     55  49  82 CALM      30.07R
$$

MDZ021>025-VAZ099-100-221100-
SOUTHERN MARYLAND AND THE DELMARVA PENINSULA

CITY           SKY/WX    TMP DP  RH WIND       PRES   REMARKS
PATUXENT RIVER PTCLDY    67  48  50 NW16      29.87R
BAY BRIDGE APT   N/A     64  48  55 W10G18    29.87R
LEONARDTOWN    CLEAR     64  45  48 NW7       29.89R
DOVER          CLEAR     63  51  64 W9        29.82R
GEORGETOWN     CLEAR     65  50  58 VRB6      29.86R
EASTON         CLEAR     67  52  57 NW9G18    29.90R
CAMBRIDGE      CLEAR     68  50  52 NW9G20    29.86R
SALISBURY      PTCLDY    69  49  48 W9        29.86R
OCEAN CITY     CLOUDY    68  49  50 NW10G18   29.84R
WALLOPS ISLAND PTCLDY    68  52  56 NW9       29.86R
ACCOMACK*      CLEAR     70  50  49 NW8       29.87R
$$

NCZ012>017-030>032-221100-
EASTERN NORTH CAROLINA

CITY           SKY/WX    TMP DP  RH WIND       PRES   REMARKS
ELIZABETH CITY PTCLDY    70  66  87 W7        29.88R
AHOSKIE*       CLEAR     68  62  80 CALM      29.91R
EDENTON*       CLEAR     71  68  89 W6        29.89R
CURRITUCK*     PTCLDY    71  65  83 W3        29.89R
KILL DEVIL HLS CLOUDY    73  67  81 W5        29.87R
MANTEO         CLOUDY    73  66  81 W5        29.89R
CAPE HATTERAS  MOCLDY    74  71  91 W9        29.90R
TARBORO*       PTSUNNY   69  64  83 NW3       29.92R
GOLDSBORO      PTCLDY    71  70  96 CALM      29.91R
WASHINGTON     PTCLDY    69  66  91 CALM      29.91R
GREENVILLE     PTCLDY    70  66  88 CALM      29.93R
NEW BERN       CLOUDY    73  65  75 W6        29.92R
WILMINGTON     MOCLDY    73  64  73 W10       29.93R
$$

VAZ048-221100-
ELSEWHERE

CITY           SKY/WX    TMP DP  RH WIND       PRES   REMARKS
HARRISBURG PA  PTCLDY    61  50  67 NW13      29.84R
BALTIMORE      PTCLDY    60  48  64 W10       29.86R
ANNAPOLIS      CLEAR     63  49  60 W5        29.86R
ANDREWS AFB    CLEAR     64  48  55 W10       29.88R
WILMINGTON DE  CLEAR     62  50  64 W9        29.83R
PHILADELPHIA   CLEAR     63  53  70 W8        29.81R
WILDWOOD NJ*   CLEAR     68  50  52 W13G18    29.83R
ATLANTIC CITY  CLEAR     64  58  80 W12       29.80R
HENDERSON NC   PTCLDY    64  51  61 NW7       29.95R
GREENSBORO     PTCLDY    62  51  67 NW6       29.98R
ROCKY MOUNT    CLOUDY    70  61  73 NW6       29.92R
FAYETTEVILLE   MOCLDY    74  65  73 NW5       29.93R
CHARLOTTE      PTCLDY    66  53  63 N7        29.99R
$$

VAZ100-221100-
MARINE

STATION/POSITION TIME  TEMP    WIND        PRES    WAVE   SWELL
                       AIR SEA DIR/SP/G            HT/PER HT/PER
                 (UTC) (F)     (DEG/KT/KT) (MB)    (FT/S) (FT/S)
44066 TX TWR #4  1000   70 70  310/ 14/ 17 1006.6R   8/10   8/10
CAPE MAY NJ      1000   69 75  300/ 15/ 24 1009.2R
LEWES DE         1000   67 72  290/ 11/ 14 1010.0R
15NM E FENWICK I 1000   71 71              1009.3R   4/ 8
OCEAN-CITY-INLET 1000   69 71  330/ 14/ 19 1009.7R
WACHAPREAGUE VA  1000   70 74  330/  2/  6 1011.1R
THOMAS POINT MD  1000   66 73  290/ 16/ 18 1012.1R
GOOSES REEF MD   1000   68     310/ 14/ 17 1011.5S
COVE POINT MD    1000   67     330/ 15/ 21 1011.3R
SOLOMONS ISLAND  1000      75                N/A
BISHOPS HEAD MD  1000   68 72  320/ 15/ 19 1011.0R
PINEY POINT MD   1000          350/ 19/ 21   N/A
POTOMAC MD       1000   71     330/ 16/ 19 1011.0R
CAMBRIDGE MD     1000   69 74  300/ 16/ 22 1010.8R
LEWISETTA VA     1000   69 74  330/  8/ 11 1011.7R
RAPPAHANNOCK LGT 1000          320/ 17/ 18 1011.7R
STINGRAY PT      1000   73     330/ 14/ 17   N/A
YORK RVR RNG VA  1000   73     350/ 13/ 16 1011.0R
YORKTOWN VA      1000   72 76  320/  8/  9 1011.3R
JAMESTOWN VA     1000   72      10/  6/  8   N/A
DOMINION TERM VA 1000   73     360/  7/  9 1011.7R
KIPTOPEKE VA     1000      78   10/ 10/ 14   N/A
CHES BAY BRIDGE  1000   75 75  320/ 15/ 16 1011.1R
CAPE HENRY VA    1000   74     320/ 11/ 13 1010.3R
CHESAPEAKE LGHT  0900   75     300/ 16/ 17 1011.3R
WILLOUBY STN VA  1000   73     350/  6/  7 1010.4R
S CRANEY ISL VA  1000          330/  4/  6 1011.4R
CAPE HENRY BUOY  1000      75                N/A     4/ 9   2/11
1ST LANDING BUOY 1000   75     340/ 14/ 16 1011.0R
CAPE CHARLES BUO 1000      74                N/A     4/ 9   3/ 9
OFFSHORE WE BUOY 1000      74                N/A     5/ 9   5/ 9
64NM E OF VA BCH 1000   74 76  270/ 14/ 16 1010.7R   5/ 9   3/ 9
DUCK PIER NC     1000   74 75  280/ 10/ 11 1010.8R
44100 DUCK FRF   1000      74                N/A     4/ 9   2/11
44056 DUCK FRF   1000                        N/A     3/10   2/11
OREGON INLET NC  1000   74 75  240/  8/ 12 1011.9R
DIAMOND SHLS NC  1000   81     240/ 19/ 23 1011.7R   7/ 6   2/10
CAPE LOOKOUT NC  0900   78     240/ 11/ 14 1012.0R
$$


USA.gov is the U.S. government's official web portal to all federal, state and local government web resources and services.